STARLINK-1575, 46349

Orbit data source: Space-Track

STARLINK-1575, 46349 is a payload satellite owned by SpaceX/Seattle (US) in LEO that was launched on Thu, 03 Sep 2020 UTC via an FALCON 9 launch vehicle from the Air Force Eastern Test Range (AFETR). Payload-class satellites include a variety of spacecraft equipped with specific instruments for various scientific and technological missions. These include communications satellites like Starlink; space stations such as the ISS; scientific satellites like the Hubble; Earth observation satellites from companies like Planet Labs, Umbra, and HawkEye 360; GPS; miniature CubeSats for education and research; and military/defense satellites.

Loading next visibility...
Identifier
46349, 2020-062AA
Orbit
LEO
Last TLE update
1 day ago
Origin
Manufacturer
SpaceX/Seattle
Mission
Operational Commercial Communications
Bus & Motor
STARLINK, Unknown motor
Mass
260 kg wet, ~248 kg dry
Launch date (UTC)
2020-09-03 (5 years ago)
Launch vehicle
FALCON 9
Launch site
Air Force Eastern Test Range (AFETR)
Object type
Payload
Rocket body
Debris
Shape & HBR
Box + 1 Pan, 8.86 m
Radar Cross Section
13.562 m², Large (>1 m²)

Expand to show TLE details & history

TLE from 1 day ago
0 STARLINK-1575
1 46349U 20062AA  25132.57798830  .00000474  00000-0  50674-4 0  9997
2 46349  53.0541 243.3587 0000564  78.0581 282.0471 15.06400599259551
Epoch: 2025-05-12T13:52Z
Definitive object data (Epoch: 2025-05-12T13:52:18.189Z)
Latitude
-0.00002°
Longitude
164.69383°
Altitude
548.007 km
Speed
7.589 km/s
True Right ascension
16h 13m 26s
True Declination
0° 00' 00"
Sunlit
Object was in full shadow at TLE epoch
Visualization TLE readout
Latitude
27.79887°
Longitude
-176.58012°
Altitude
548.278 km
Speed
7.592 km/s
Apparent Right ascension
14h 28m 47s
Apparent Declination
-7° 21' 53"
Sunlit
Object is in full shadow
Visualization observer readout
Local Sidereal Time
22:20:38
Azimuth
282.866° WNW
Elevation
-26.035°
Doppler factor
1
Orbital elements
Apogee altitude
547.871 km
Perigee altitude
547.09 km
Semi-major axis
6,925.618 km
Eccentricity
0.0000564
Inclination
53.0541°
RAAN
243.3587°
Arg. of periapsis
78.0581°
True anomaly
282.04078°
Mean anomaly
282.0471°
Eccentric anomaly
282.04394°
Mean motion
3.76578 °/min
BSTAR
0.000050674
Orbital period
95.6 mins
Loading maneuver chart data...
Loading SW <> Apogee altitude chart data...
Loading historical data...
Loading historical data...
Loading historical data...
Loading historical data...
Loading historical data...
Loading historical data...
Loading historical data...

STARLINK-1575 Visibility forecast

Observer location: undefined°, undefined°

Span
Click to sort rows by Start time (UTC) header in descending order
Start Az.
Max El. time (UTC)
Max El. Az.
Max El.
End time (UTC)
End Az.
5 mins2025-05-13 15:49:48.470Z338.058° N2025-05-13 15:51:48.470Z23.649° NE28.618°2025-05-13 15:54:48.470Z88.361° E
6 mins2025-05-13 17:28:48.470Z289.217° WNW2025-05-13 17:31:48.470Z216.774° SW32.204°2025-05-13 17:34:48.470Z160.748° S
6 mins2025-05-14 09:01:48.470Z192.207° SSW2025-05-14 09:04:48.470Z117.824° SE30.753°2025-05-14 09:07:48.470Z66.97° ENE
5 mins2025-05-14 10:41:48.470Z277.968° WNW2025-05-14 10:43:48.470Z325.573° NNW29.386°2025-05-14 10:46:48.470Z29.994° NE
|